[[{"header":{"parameterUnit":"m.s-1","parameterCategory":2,"la1":30.2991,"la2":30.254,"lo1":-89.0895,"lo2":-89.0444,"dy":0.0017,"dx":0.0017,"nx":28,"ny":28,"refTime":"2025-08-22T03:00:00:Z","depth":"0","parameterNumber":2,"parameterNumberName":"U-component_of_CURRENTS"},"data":[0,0,0,0,0,0,0,0,0,0,0,0,0,0,0,0,0,0,0,0,0,0,0,0,0,0,0,0,0,0,0,0,0,0,0,0,0,0,0,0,0,0,0,0,0,0,0,0,0,0,0,0,0,0,0,0,0,0,0.2375,0.2376,0,0.2444,0.2444,0.2445,0.2459,0.2458,0.2458,0.2458,0.2454,0.2454,0.2454,0,0,0,0,0,0,0,0,0,0,0,0,0,0.2266,0.2268,0.2375,0.2376,0.2377,0.2443,0.2444,0.2445,0.2459,0.2458,0.2458,0.2458,0.2454,0.2454,0.2454,0,0,0,0,0,0,0,0,0,0,0,0,0,0.232,0.2268,0.2375,0.2394,0.2396,0.2443,0.2444,0.2445,0.2459,0.2458,0.2458,0.2457,0.2454,0.2454,0.2454,0.2466,0,0,0.2455,0.2455,0,0,0,0,0,0,0,0,0.2317,0.2323,0.239,0.2393,0.2396,0.2444,0.2405,0.2449,0.2459,0.2433,0.2458,0.2457,0.2446,0.2447,0.2458,0.2466,0.2465,0.2455,0.2456,0.2456,0.2456,0,0,0,0,0,0,0,0.2313,0.2321,0.24,0.2391,0.2395,0.2402,0.2409,0.2413,0.2438,0.2435,0.2437,0.2448,0.2446,0.2458,0.2458,0.2465,0.2455,0.2456,0.2456,0.2456,0.2495,0.2496,0,0,0,0,0,0,0.2309,0.2317,0.2398,0.2402,0.2357,0.2405,0.2412,0.2427,0.244,0.2442,0.2448,0.2449,0.2458,0.2458,0.2458,0.2487,0.2456,0.2456,0.2456,0.2494,0.2495,0.2496,0,0,0,0,0,0,0.2307,0.2316,0.2395,0.2363,0.2373,0.2407,0.2424,0.2429,0.2445,0.2451,0.2452,0.246,0.2458,0.2458,0.2474,0.2486,0.2456,0.2456,0.2493,0.2495,0.2496,0.2534,0,0,0,0,0,0,0.2303,0.2315,0.2323,0.2363,0.2375,0.243,0.2425,0.2431,0.2454,0.2454,0.2461,0.246,0.2457,0.2474,0.2474,0.2486,0.2457,0.2492,0.2494,0.2495,0.2532,0.2537,0.2541,0,0,0,0,0,0.2299,0.2313,0.2324,0.2333,0.2387,0.2431,0.2438,0.2458,0.2455,0.2469,0.2475,0.246,0.2484,0.2475,0.2475,0.2487,0.2491,0.2493,0.2495,0.253,0.2536,0.2541,0,0,0,0,0,0,0.2267,0.2317,0.2329,0.2357,0.2395,0.2434,0.2447,0.2462,0.248,0.2475,0.2475,0.2475,0.2495,0.2487,0.2477,0.2504,0.2484,0.2486,0.251,0.2515,0.252,0.2507,0.2457,0,0,0,0,0,0.2266,0.2288,0.2339,0.2359,0.2378,0.2413,0.2432,0.245,0.2472,0.248,0.2487,0.2491,0.2504,0.2506,0.2514,0.2529,0.2542,0.2536,0.254,0.2544,0.2534,0.2553,0.2558,0.2503,0.2503,0.2503,0,0,0.2256,0.2288,0.2299,0.2354,0.238,0.2415,0.2423,0.2455,0.2479,0.2475,0.25,0.2509,0.2513,0.2534,0.254,0.2527,0.258,0.2546,0.255,0.2537,0.2556,0.2561,0.2566,0.2504,0.2504,0.2504,0,0,0.2254,0.228,0.2303,0.2338,0.2387,0.2413,0.2425,0.247,0.2484,0.2515,0.2519,0.2535,0.2552,0.2561,0.2566,0.2598,0.2606,0.2602,0.261,0.2629,0.2634,0.2637,0.2719,0.273,0.26,0.26,0.26,0,0.2241,0.228,0.2315,0.2351,0.2378,0.2414,0.2445,0.2471,0.2514,0.2525,0.2524,0.2559,0.2563,0.2589,0.2602,0.2607,0.2639,0.259,0.2635,0.2638,0.2641,0.2724,0.2735,0.2602,0.2602,0.2602,0.2601,0,0.2263,0.2296,0.2311,0.2368,0.2401,0.2432,0.2479,0.2505,0.2522,0.2546,0.2576,0.259,0.2608,0.2617,0.2619,0.2647,0.2675,0.2642,0.262,0.2649,0.2735,0.2746,0.2605,0.2604,0.2604,0.2603,0,0,0.2231,0.2311,0.2317,0.2345,0.2412,0.2441,0.2481,0.2528,0.2549,0.2581,0.2606,0.2632,0.2638,0.2644,0.2653,0.2665,0.2738,0.2663,0.2663,0.2744,0.2834,0.3004,0.3032,0.2712,0.2712,0.2713,0.2906,0,0.2238,0.2298,0.2338,0.2388,0.2423,0.2467,0.2501,0.2544,0.2575,0.2609,0.2625,0.265,0.265,0.266,0.2678,0.272,0.2759,0.2692,0.2792,0.2797,0.2941,0.3047,0.3069,0.3254,0.2917,0.2919,0.292,0,0.2249,0.229,0.2339,0.2403,0.242,0.2451,0.2506,0.2541,0.2594,0.2618,0.2647,0.2665,0.2714,0.2687,0.2788,0.2748,0.2794,0.2822,0.2829,0.2972,0.2985,0.3158,0.3287,0.3143,0.2937,0.2936,0.2934,0,0.2214,0.2288,0.2323,0.2349,0.2427,0.2447,0.248,0.2537,0.2571,0.2619,0.2661,0.2702,0.2755,0.2787,0.2899,0.283,0.3028,0.2935,0.3138,0.3153,0.3184,0.3201,0.3178,0.2991,0.2991,0.299,0.299,0,0.2211,0.2239,0.2308,0.2331,0.2361,0.2422,0.2454,0.2496,0.2561,0.2622,0.266,0.2742,0.2776,0.2904,0.2942,0.3147,0.3081,0.3181,0.3218,0.3209,0.3224,0.3108,0.3024,0.2998,0.2996,0.2995,0.2993,0,0.2174,0.2224,0.2262,0.2332,0.2349,0.2366,0.2436,0.2467,0.2545,0.263,0.2652,0.2797,0.3001,0.3105,0.322,0.326,0.3323,0.3459,0.35,0.3539,0.3555,0.3475,0.3413,0.3307,0.3682,0.3688,0.3692,0,0.216,0.2179,0.224,0.2259,0.2289,0.2325,0.2355,0.2434,0.2489,0.2688,0.2743,0.2975,0.3178,0.349,0.3608,0.3788,0.3572,0.3872,0.3723,0.3609,0.3543,0.3319,0.3211,0.3794,0.3799,0.3803,0.3806,0,0.2126,0.2147,0.2182,0.2227,0.2258,0.229,0.2352,0.2403,0.2534,0.2656,0.2891,0.3077,0.3454,0.3681,0.3956,0.4049,0.3713,0.3965,0.3793,0.3615,0.3416,0.3316,0.3645,0.3843,0.3839,0.3836,0.3834,0.3833,0.2094,0.2114,0.2169,0.2212,0.2236,0.2289,0.2311,0.2421,0.255,0.276,0.2959,0.3247,0.3614,0.4034,0.4097,0.4199,0.4012,0.4076,0.3994,0.3779,0.3646,0.4124,0.439,0.4389,0.4389,0.4389,0.4388,0,0.21,0.2142,0.2161,0.222,0.2233,0.2261,0.2337,0.2376,0.2534,0.279,0.3018,0.3459,0.3778,0.4026,0.4273,0.4173,0.3934,0.4071,0.3676,0.3566,0.3971,0.3945,0.4192,0.4192,0.4192,0.4192,0.4192,0.4193,0.2115,0.2156,0.2182,0.2221,0.2247,0.2256,0.2294,0.2371,0.2527,0.2826,0.3077,0.3319,0.3706,0.4073,0.4112,0.4057,0.363,0.3619,0.3425,0.3646,0.3633,0.3621,0.357,0.3735,0.3734,0.2906,0.29,0.2896]},{"header":{"parameterUnit":"m.s-1","parameterCategory":2,"la1":30.2991,"la2":30.254,"lo1":-89.0895,"lo2":-89.0444,"dy":0.0017,"dx":0.0017,"nx":28,"ny":28,"refTime":"2025-08-22T03:00:00:Z","depth":"0","parameterNumber":3,"parameterNumberName":"V-component_of_CURRENTS"},"data":[0,0,0,0,0,0,0,0,0,0,0,0,0,0,0,0,0,0,0,0,0,0,0,0,0,0,0,0,0,0,0,0,0,0,0,0,0,0,0,0,0,0,0,0,0,0,0,0,0,0,0,0,0,0,0,0,0,0,-0.0198,-0.0199,0,-0.0278,-0.0279,-0.028,-0.0332,-0.0332,-0.0332,-0.0333,-0.0453,-0.0456,-0.0459,0,0,0,0,0,0,0,0,0,0,0,0,0,-0.0146,-0.0147,-0.0198,-0.0199,-0.02,-0.0277,-0.0279,-0.028,-0.0332,-0.0332,-0.0332,-0.0333,-0.0452,-0.0456,-0.0459,0,0,0,0,0,0,0,0,0,0,0,0,0,-0.0192,-0.0147,-0.0198,-0.0234,-0.0238,-0.0277,-0.0279,-0.028,-0.0332,-0.0332,-0.0333,-0.0333,-0.0451,-0.0455,-0.046,-0.048,0,0,-0.0473,-0.0475,0,0,0,0,0,0,0,0,-0.019,-0.0194,-0.0228,-0.0232,-0.0236,-0.0294,-0.0304,-0.0349,-0.0332,-0.0298,-0.0333,-0.0333,-0.0403,-0.0411,-0.0426,-0.0486,-0.0491,-0.0474,-0.0476,-0.0478,-0.048,0,0,0,0,0,0,0,-0.0186,-0.0192,-0.0231,-0.0229,-0.0234,-0.0265,-0.0272,-0.0313,-0.0349,-0.0301,-0.0304,-0.0311,-0.0405,-0.0422,-0.043,-0.0493,-0.0474,-0.0478,-0.048,-0.0482,-0.0598,-0.0599,0,0,0,0,0,0,-0.0171,-0.0188,-0.0228,-0.0233,-0.0212,-0.0265,-0.0273,-0.0276,-0.0348,-0.0358,-0.0311,-0.0313,-0.0414,-0.0424,-0.0434,-0.0481,-0.0478,-0.0483,-0.0485,-0.0598,-0.0598,-0.0599,0,0,0,0,0,0,-0.0169,-0.0173,-0.0225,-0.0212,-0.022,-0.0265,-0.0269,-0.0278,-0.0294,-0.0355,-0.0366,-0.0317,-0.0415,-0.0428,-0.047,-0.0485,-0.0485,-0.0489,-0.0597,-0.0598,-0.0599,-0.0563,0,0,0,0,0,0,-0.0167,-0.0172,-0.0168,-0.021,-0.022,-0.0243,-0.0269,-0.0279,-0.0297,-0.0301,-0.0364,-0.0376,-0.0416,-0.0463,-0.0475,-0.0491,-0.0492,-0.0597,-0.0598,-0.0598,-0.0563,-0.0562,-0.0561,0,0,0,0,0,-0.0165,-0.0156,-0.0168,-0.0172,-0.0214,-0.0243,-0.0251,-0.0286,-0.0296,-0.0301,-0.0345,-0.0374,-0.0477,-0.0467,-0.0481,-0.0499,-0.0597,-0.0598,-0.0598,-0.0564,-0.0562,-0.0561,0,0,0,0,0,0,-0.0127,-0.0162,-0.0175,-0.0176,-0.0205,-0.0251,-0.0257,-0.028,-0.0318,-0.0322,-0.0377,-0.0392,-0.0436,-0.0469,-0.0457,-0.0534,-0.0542,-0.0546,-0.0512,-0.051,-0.0509,-0.0519,-0.0496,0,0,0,0,0,-0.0116,-0.0122,-0.016,-0.016,-0.0171,-0.0212,-0.0228,-0.0251,-0.029,-0.0307,-0.0351,-0.0402,-0.045,-0.0479,-0.0523,-0.0563,-0.0589,-0.0584,-0.0583,-0.0581,-0.0598,-0.0653,-0.0658,-0.0602,-0.0602,-0.0602,0,0,-0.0101,-0.0121,-0.0123,-0.0152,-0.0177,-0.0202,-0.0223,-0.0242,-0.027,-0.0314,-0.0359,-0.0396,-0.0458,-0.0505,-0.0528,-0.0535,-0.0601,-0.0583,-0.0581,-0.0599,-0.0655,-0.066,-0.0665,-0.0602,-0.0602,-0.0602,0,0,-0.0084,-0.009,-0.0097,-0.0121,-0.0155,-0.0184,-0.0186,-0.023,-0.0255,-0.0297,-0.034,-0.0384,-0.0451,-0.0505,-0.0541,-0.0559,-0.0589,-0.0568,-0.0577,-0.0629,-0.0634,-0.0639,-0.0635,-0.064,-0.0572,-0.0572,-0.0572,0,-0.0065,-0.0083,-0.0103,-0.0121,-0.0143,-0.0174,-0.0195,-0.0225,-0.0278,-0.0305,-0.0306,-0.0416,-0.0459,-0.0537,-0.0545,-0.0558,-0.0573,-0.0575,-0.0627,-0.0633,-0.0639,-0.0634,-0.064,-0.057,-0.057,-0.057,-0.0571,0,-0.0067,-0.0081,-0.0085,-0.0124,-0.0146,-0.0164,-0.0209,-0.0232,-0.0259,-0.0299,-0.0363,-0.0419,-0.0488,-0.0505,-0.0535,-0.0602,-0.059,-0.0613,-0.0629,-0.0643,-0.0636,-0.0643,-0.0568,-0.0568,-0.0569,-0.0569,0,0,-0.0031,-0.0079,-0.0082,-0.0103,-0.0151,-0.0169,-0.0208,-0.0262,-0.0285,-0.0339,-0.0377,-0.0469,-0.0492,-0.0534,-0.0572,-0.0623,-0.0656,-0.0635,-0.0638,-0.0625,-0.0731,-0.0629,-0.0627,-0.0689,-0.0691,-0.0692,-0.0693,0,-0.0033,-0.0064,-0.0093,-0.0126,-0.0149,-0.0188,-0.022,-0.0268,-0.0304,-0.0341,-0.0413,-0.0456,-0.0505,-0.052,-0.0587,-0.0631,-0.0681,-0.0652,-0.0726,-0.0728,-0.0632,-0.0635,-0.0547,-0.0533,-0.07,-0.0701,-0.0702,0,-0.0035,-0.0057,-0.0088,-0.0134,-0.0146,-0.0166,-0.0216,-0.0249,-0.031,-0.0334,-0.04,-0.0439,-0.0516,-0.0544,-0.0662,-0.0637,-0.0694,-0.0733,-0.0734,-0.0666,-0.0641,-0.0557,-0.054,-0.0774,-0.0713,-0.0712,-0.0712,0,-0.0011,-0.0058,-0.0081,-0.0098,-0.0149,-0.0166,-0.0191,-0.0246,-0.0247,-0.0318,-0.0297,-0.0428,-0.0423,-0.0557,-0.0613,-0.0651,-0.0706,-0.0768,-0.0737,-0.0728,-0.0683,-0.0666,-0.0902,-0.0878,-0.0878,-0.0878,-0.0878,0,-0.001,-0.0028,-0.0067,-0.0078,-0.0088,-0.0138,-0.0142,-0.0183,-0.0201,-0.015,-0.0278,-0.0224,-0.0426,-0.0462,-0.0588,-0.0637,-0.0688,-0.0738,-0.0733,-0.066,-0.0642,-0.0867,-0.1007,-0.0878,-0.0878,-0.0878,-0.0878,0,0.0018,-0.0015,-0.0032,-0.0071,-0.0075,-0.0078,-0.0071,-0.0057,-0.0087,-0.0011,-0.0012,-0.0062,-0.0081,-0.025,-0.0402,-0.0536,-0.0735,-0.0655,-0.0516,-0.0496,-0.0715,-0.0852,-0.1045,-0.1149,-0.0659,-0.0656,-0.0654,0,0.0031,0.0022,0.0001,0.0026,0.0017,0.0018,0.0044,0.0004,0.0066,0.0142,0.0223,0.0213,0.0309,0.0125,-0.013,-0.0328,-0.0587,-0.0433,-0.0521,-0.0715,-0.0868,-0.0973,-0.1057,-0.0434,-0.0431,-0.0428,-0.0425,0,0.0076,0.0069,0.0072,0.0127,0.0157,0.0192,0.0248,0.0326,0.0355,0.0472,0.068,0.0765,0.0618,0.0511,0.0197,-0.0,-0.0578,-0.0377,-0.0648,-0.077,-0.0835,-0.0931,-0.0418,-0.0399,-0.0402,-0.0404,-0.0405,-0.0406,0.014,0.017,0.0206,0.0266,0.0313,0.0431,0.053,0.0652,0.0834,0.1104,0.1108,0.135,0.1049,0.0671,0.0337,-0.0276,-0.0355,-0.0484,-0.0645,-0.0741,-0.0832,-0.0219,-0.0154,-0.0155,-0.0156,-0.0157,-0.0157,0,0.0262,0.0307,0.0361,0.0465,0.0581,0.0557,0.073,0.0887,0.1208,0.1467,0.1708,0.1785,0.1375,0.0821,0.0023,-0.0455,-0.0709,-0.0768,-0.0968,-0.1054,-0.0562,-0.0545,-0.0474,-0.0474,-0.0473,-0.0473,-0.0473,-0.0473,0.0344,0.0444,0.0478,0.0716,0.0802,0.0993,0.1126,0.1365,0.1596,0.2027,0.2264,0.2396,0.1949,0.0442,-0.0625,-0.0885,-0.1318,-0.1329,-0.1595,-0.1332,-0.1321,-0.1311,-0.1333,-0.1428,-0.1429,-0.2007,-0.2013,-0.2018]}],[{"header":{"parameterUnit":"m.s-1","parameterCategory":2,"la1":30.2991,"la2":30.254,"lo1":-89.0895,"lo2":-89.0444,"dy":0.0017,"dx":0.0017,"nx":28,"ny":28,"refTime":"2025-08-22T03:00:00:Z","depth":"2","parameterNumber":2,"parameterNumberName":"U-component_of_CURRENTS"},"data":[0,0,0,0,0,0,0,0,0,0,0,0,0,0,0,0,0,0,0,0,0,0,0,0,0,0,0,0,0,0,0,0,0,0,0,0,0,0,0,0,0,0,0,0,0,0,0,0,0,0,0,0,0,0,0,0,0,0,0.1981,0.1982,0,0.2053,0.2054,0.2054,0.2075,0.2074,0.2074,0.2074,0.2109,0.211,0.2111,0,0,0,0,0,0,0,0,0,0,0,0,0,0.1909,0.191,0.1981,0.1982,0.1983,0.2053,0.2054,0.2055,0.2075,0.2074,0.2074,0.2074,0.2108,0.211,0.2111,0,0,0,0,0,0,0,0,0,0,0,0,0,0.1956,0.1911,0.1981,0.2001,0.2004,0.2053,0.2054,0.2055,0.2075,0.2074,0.2074,0.2073,0.2108,0.211,0.2111,0.2135,0,0,0.2117,0.2118,0,0,0,0,0,0,0,0,0.1954,0.1959,0.1998,0.2,0.2003,0.2054,0.2041,0.208,0.2075,0.2048,0.2074,0.2073,0.2088,0.2091,0.2106,0.2136,0.2138,0.2117,0.2119,0.2119,0.212,0,0,0,0,0,0,0,0.195,0.1956,0.2009,0.1999,0.2002,0.2024,0.2029,0.2049,0.2069,0.205,0.2052,0.206,0.2089,0.2104,0.2107,0.2138,0.2117,0.2119,0.212,0.2121,0.221,0.2211,0,0,0,0,0,0,0.194,0.1953,0.2007,0.2012,0.1977,0.2025,0.2031,0.2038,0.207,0.2075,0.2061,0.2061,0.2101,0.2105,0.2108,0.2177,0.2119,0.2121,0.2122,0.2208,0.221,0.2211,0,0,0,0,0,0,0.1938,0.1944,0.2004,0.1984,0.1993,0.2027,0.2035,0.204,0.2066,0.2078,0.2082,0.2082,0.2101,0.2106,0.2138,0.2177,0.2122,0.2124,0.2207,0.2209,0.221,0.229,0,0,0,0,0,0,0.1936,0.1943,0.1954,0.1983,0.1994,0.2041,0.2035,0.2042,0.2072,0.2073,0.2098,0.21,0.2101,0.2136,0.214,0.2179,0.2125,0.2205,0.2208,0.221,0.2286,0.2294,0.2301,0,0,0,0,0,0.1933,0.1946,0.1954,0.1961,0.2004,0.2042,0.205,0.2071,0.2073,0.2091,0.2108,0.21,0.2153,0.2139,0.2144,0.2184,0.2204,0.2207,0.221,0.2282,0.2292,0.2301,0,0,0,0,0,0,0.1921,0.195,0.1959,0.1981,0.2012,0.2045,0.2067,0.2081,0.211,0.2111,0.2119,0.2123,0.2168,0.216,0.2144,0.2213,0.2176,0.218,0.2229,0.2239,0.2247,0.2257,0.2127,0,0,0,0,0,0.1923,0.1938,0.1973,0.199,0.2009,0.2041,0.2062,0.2076,0.2103,0.2116,0.2134,0.2153,0.2183,0.2197,0.2216,0.2255,0.227,0.2281,0.2289,0.2296,0.2307,0.2351,0.2365,0.222,0.222,0.222,0,0,0.1923,0.1941,0.1951,0.1989,0.2016,0.2055,0.2053,0.2087,0.2119,0.2114,0.2165,0.2183,0.2199,0.2246,0.2264,0.2245,0.2351,0.2299,0.2305,0.2313,0.2356,0.237,0.2383,0.2222,0.2221,0.2221,0,0,0.1931,0.195,0.1969,0.2002,0.2043,0.2067,0.208,0.2123,0.2144,0.2188,0.22,0.2237,0.2275,0.2302,0.2318,0.2376,0.2391,0.2387,0.244,0.2483,0.2496,0.2507,0.2572,0.2588,0.239,0.2391,0.2391,0,0.1927,0.1963,0.1982,0.2017,0.2059,0.2076,0.2125,0.2146,0.2192,0.2226,0.2207,0.2297,0.23,0.238,0.2402,0.2396,0.2435,0.2406,0.2495,0.2506,0.2516,0.258,0.2597,0.2395,0.2394,0.2394,0.2393,0,0.196,0.1993,0.2011,0.2063,0.2111,0.215,0.2194,0.223,0.2253,0.2282,0.2357,0.2371,0.2427,0.2437,0.2439,0.2528,0.2539,0.2502,0.2475,0.2536,0.2599,0.2615,0.2401,0.2399,0.2398,0.2397,0,0,0.194,0.2017,0.2029,0.2072,0.2145,0.2188,0.2248,0.2321,0.2368,0.24,0.2475,0.2521,0.2536,0.2555,0.2569,0.2605,0.271,0.2596,0.2596,0.2668,0.2845,0.2779,0.279,0.2701,0.2704,0.2706,0.2871,0,0.1964,0.2042,0.2082,0.2169,0.2222,0.2275,0.233,0.2396,0.2443,0.2507,0.2537,0.2593,0.2579,0.2612,0.2656,0.2692,0.2754,0.2671,0.2768,0.2771,0.271,0.2805,0.2594,0.2716,0.2886,0.2889,0.2891,0,0.2005,0.2048,0.214,0.2239,0.2269,0.2314,0.2437,0.2483,0.2566,0.2601,0.2672,0.2697,0.2777,0.2728,0.2851,0.2808,0.2846,0.2863,0.2869,0.2787,0.2734,0.2675,0.2738,0.2918,0.2916,0.2914,0.2912,0,0.2017,0.2107,0.2184,0.222,0.2315,0.2365,0.2416,0.2513,0.2562,0.2657,0.2705,0.2801,0.2844,0.2906,0.297,0.2919,0.31,0.3019,0.3007,0.3004,0.283,0.2806,0.3115,0.3114,0.3114,0.3114,0.3113,0,0.2049,0.2105,0.2185,0.222,0.2289,0.2373,0.2448,0.2508,0.2604,0.2678,0.2742,0.2833,0.289,0.3001,0.3035,0.31,0.3162,0.3049,0.3047,0.2853,0.283,0.2991,0.2974,0.312,0.3118,0.3117,0.3116,0,0.2045,0.2107,0.2172,0.2263,0.2289,0.2335,0.2429,0.248,0.2578,0.2681,0.2714,0.2873,0.3027,0.3114,0.3234,0.3172,0.3236,0.325,0.3036,0.3003,0.3093,0.3078,0.3219,0.3219,0.3218,0.3217,0.3217,0,0.2051,0.2083,0.2168,0.219,0.2218,0.2285,0.2322,0.2436,0.2503,0.2718,0.2771,0.2968,0.3066,0.3229,0.3243,0.3307,0.3345,0.3076,0.2903,0.3123,0.3106,0.3093,0.308,0.2727,0.2723,0.2719,0.2716,0,0.2017,0.2044,0.2083,0.2131,0.2172,0.2224,0.2301,0.2354,0.2512,0.2593,0.2777,0.2872,0.3076,0.3042,0.3116,0.3108,0.3032,0.2998,0.3318,0.2715,0.2666,0.2647,0.265,0.2684,0.2687,0.2689,0.2691,0.2692,0.1965,0.1976,0.2026,0.2068,0.2114,0.2173,0.2197,0.2276,0.2359,0.247,0.266,0.2708,0.2799,0.2797,0.278,0.2772,0.2935,0.2744,0.2753,0.2766,0.2661,0.2611,0.2601,0.2604,0.2606,0.2608,0.261,0,0.1901,0.1932,0.1962,0.2019,0.2042,0.2105,0.2188,0.2166,0.2207,0.2316,0.2393,0.2262,0.2273,0.2416,0.2353,0.2323,0.2268,0.2226,0.2135,0.2172,0.2204,0.2065,0.1851,0.1848,0.1845,0.1842,0,0,0.1869,0.1877,0.1905,0.1935,0.198,0.1995,0.2031,0.1956,0.1989,0.1938,0.1949,0.2123,0.2293,0.2014,0.2015,0.1925,0.2015,0.1855,0.2475,0.2405,0.2431,0.253,0.2362,0,0,0,0,0]},{"header":{"parameterUnit":"m.s-1","parameterCategory":2,"la1":30.2991,"la2":30.254,"lo1":-89.0895,"lo2":-89.0444,"dy":0.0017,"dx":0.0017,"nx":28,"ny":28,"refTime":"2025-08-22T03:00:00:Z","depth":"2","parameterNumber":3,"parameterNumberName":"V-component_of_CURRENTS"},"data":[0,0,0,0,0,0,0,0,0,0,0,0,0,0,0,0,0,0,0,0,0,0,0,0,0,0,0,0,0,0,0,0,0,0,0,0,0,0,0,0,0,0,0,0,0,0,0,0,0,0,0,0,0,0,0,0,0,0,-0.0091,-0.0091,0,-0.015,-0.0151,-0.0151,-0.0198,-0.0198,-0.0199,-0.0199,-0.0295,-0.0297,-0.0299,0,0,0,0,0,0,0,0,0,0,0,0,0,-0.0053,-0.0053,-0.0091,-0.0091,-0.0092,-0.015,-0.0151,-0.0152,-0.0198,-0.0198,-0.0199,-0.0199,-0.0294,-0.0297,-0.0299,0,0,0,0,0,0,0,0,0,0,0,0,0,-0.0088,-0.0053,-0.0091,-0.0121,-0.0124,-0.015,-0.0151,-0.0152,-0.0198,-0.0198,-0.0199,-0.0199,-0.0293,-0.0296,-0.03,-0.0311,0,0,-0.031,-0.0312,0,0,0,0,0,0,0,0,-0.0086,-0.0089,-0.0116,-0.0119,-0.0123,-0.0166,-0.0173,-0.0206,-0.0198,-0.0171,-0.0199,-0.02,-0.0254,-0.026,-0.0272,-0.0315,-0.0319,-0.031,-0.0312,-0.0314,-0.0315,0,0,0,0,0,0,0,-0.0083,-0.0087,-0.0116,-0.0116,-0.0121,-0.0144,-0.0149,-0.0179,-0.0211,-0.0174,-0.0177,-0.0181,-0.0256,-0.0268,-0.0275,-0.0321,-0.031,-0.0313,-0.0315,-0.0317,-0.0396,-0.0396,0,0,0,0,0,0,-0.0071,-0.0085,-0.0114,-0.0117,-0.0103,-0.0144,-0.015,-0.0153,-0.021,-0.0218,-0.0181,-0.0183,-0.0263,-0.0271,-0.0278,-0.0302,-0.0314,-0.0317,-0.0319,-0.0396,-0.0396,-0.0396,0,0,0,0,0,0,-0.007,-0.0073,-0.0111,-0.0101,-0.0108,-0.0143,-0.0147,-0.0153,-0.0167,-0.0214,-0.0224,-0.0187,-0.0263,-0.0273,-0.0304,-0.0306,-0.0318,-0.0322,-0.0396,-0.0396,-0.0396,-0.0345,0,0,0,0,0,0,-0.0068,-0.0072,-0.0071,-0.01,-0.0108,-0.0118,-0.0146,-0.0154,-0.0168,-0.0172,-0.0223,-0.0233,-0.0264,-0.0299,-0.0308,-0.0311,-0.0324,-0.0396,-0.0396,-0.0396,-0.0347,-0.0344,-0.0341,0,0,0,0,0,-0.0067,-0.0058,-0.0071,-0.0075,-0.0105,-0.0117,-0.0123,-0.0151,-0.0168,-0.0167,-0.0206,-0.0231,-0.0307,-0.0302,-0.0312,-0.0316,-0.0396,-0.0396,-0.0396,-0.0348,-0.0344,-0.0341,0,0,0,0,0,0,-0.0041,-0.0063,-0.0077,-0.0077,-0.0093,-0.0124,-0.0127,-0.0147,-0.0177,-0.0183,-0.0231,-0.0243,-0.0271,-0.03,-0.0293,-0.034,-0.0356,-0.0358,-0.0316,-0.0313,-0.031,-0.0312,-0.0327,0,0,0,0,0,-0.0034,-0.0034,-0.0059,-0.0058,-0.0064,-0.0096,-0.0106,-0.0123,-0.0152,-0.0166,-0.0201,-0.0243,-0.0279,-0.03,-0.0332,-0.0356,-0.0386,-0.0367,-0.0364,-0.0361,-0.037,-0.0423,-0.0425,-0.0397,-0.0397,-0.0397,0,0,-0.0024,-0.0035,-0.0037,-0.0052,-0.0069,-0.0065,-0.0103,-0.0111,-0.0107,-0.0171,-0.0183,-0.0231,-0.0283,-0.031,-0.0326,-0.0335,-0.0378,-0.0361,-0.0358,-0.037,-0.0423,-0.0426,-0.0429,-0.0397,-0.0397,-0.0397,0,0,0.0008,-0.0013,0.0002,-0.0008,-0.0025,-0.0043,-0.0042,-0.0071,-0.0085,-0.0104,-0.0152,-0.0198,-0.0247,-0.0287,-0.0314,-0.0313,-0.0359,-0.033,-0.0321,-0.0371,-0.0374,-0.0377,-0.0388,-0.0392,-0.0331,-0.0331,-0.0331,0,0.0022,0.0037,0.0005,0.0018,0.001,-0.0027,-0.0015,-0.0027,-0.0062,-0.0078,-0.0097,-0.0193,-0.0233,-0.0282,-0.0293,-0.0306,-0.0339,-0.0327,-0.0367,-0.0371,-0.0375,-0.0386,-0.0392,-0.0328,-0.0328,-0.0329,-0.0329,0,0.0067,0.0077,0.0085,0.0087,0.0071,0.008,0.0052,0.0037,0.0009,-0.001,-0.0062,-0.0131,-0.0196,-0.0215,-0.0261,-0.0315,-0.0329,-0.0353,-0.0373,-0.0374,-0.0386,-0.0392,-0.0325,-0.0326,-0.0326,-0.0327,0,0,0.0104,0.0117,0.0118,0.0129,0.0107,0.0101,0.0097,0.0079,0.0074,0.0028,0.0003,-0.0078,-0.0137,-0.0174,-0.024,-0.0295,-0.0343,-0.0347,-0.0351,-0.0353,-0.0441,-0.0414,-0.0418,-0.0389,-0.0391,-0.0392,-0.0426,0,0.0152,0.0193,0.0177,0.0206,0.022,0.0172,0.0175,0.0147,0.011,0.0082,0.0003,-0.0038,-0.011,-0.0158,-0.0227,-0.0316,-0.0366,-0.0331,-0.0445,-0.0448,-0.042,-0.0427,-0.0415,-0.0442,-0.0433,-0.0434,-0.0435,0,0.0195,0.022,0.0254,0.0263,0.0263,0.0265,0.0227,0.0224,0.0174,0.0144,0.0066,0.0008,-0.0084,-0.0144,-0.0293,-0.0276,-0.0365,-0.0428,-0.0431,-0.0434,-0.0435,-0.0448,-0.0456,-0.0447,-0.0446,-0.0445,-0.0444,0,0.0229,0.0266,0.0294,0.0296,0.0303,0.0291,0.0279,0.0234,0.0242,0.0167,0.0162,0.0042,0.0001,-0.0147,-0.0274,-0.0303,-0.0418,-0.0463,-0.0512,-0.0509,-0.0535,-0.0531,-0.0574,-0.0574,-0.0573,-0.0573,-0.0573,0,0.0279,0.0304,0.0313,0.0331,0.0361,0.0326,0.0339,0.0307,0.0281,0.032,0.0188,0.0197,-0.001,-0.0091,-0.0247,-0.0379,-0.0393,-0.0514,-0.0527,-0.0511,-0.0506,-0.0548,-0.0545,-0.0575,-0.0574,-0.0574,-0.0574,0,0.0312,0.0322,0.0364,0.0378,0.038,0.0389,0.0401,0.0418,0.0378,0.0412,0.0398,0.0317,0.0218,0.0037,-0.0159,-0.0301,-0.0453,-0.0496,-0.0441,-0.0448,-0.0521,-0.0515,-0.0577,-0.0576,-0.0576,-0.0575,-0.0575,0,0.0335,0.0361,0.0397,0.0424,0.0432,0.0448,0.0473,0.0458,0.0495,0.0516,0.0557,0.0478,0.0453,0.0186,-0.0087,-0.0335,-0.038,-0.048,-0.0546,-0.052,-0.0527,-0.0521,-0.0515,-0.0547,-0.0547,-0.0547,-0.0546,0,0.0382,0.0388,0.042,0.0481,0.0513,0.0569,0.061,0.067,0.0689,0.0741,0.0826,0.0806,0.0557,0.0309,-0.0042,-0.0219,-0.045,-0.0479,-0.0482,-0.0539,-0.0494,-0.0499,-0.0495,-0.0543,-0.0543,-0.0543,-0.0544,-0.0544,0.0401,0.0438,0.0477,0.0533,0.0588,0.0683,0.0751,0.0835,0.0941,0.1028,0.1019,0.099,0.0685,0.0235,-0.0057,-0.0381,-0.0394,-0.053,-0.0531,-0.0533,-0.0515,-0.047,-0.051,-0.051,-0.051,-0.051,-0.051,0,0.0416,0.0463,0.0528,0.0603,0.0682,0.0705,0.0841,0.0928,0.1089,0.116,0.121,0.0948,0.0646,0.0316,-0.0168,-0.046,-0.0507,-0.0534,-0.0545,-0.0546,-0.0548,-0.0531,-0.053,-0.0531,-0.0531,-0.0532,0,0,0.0423,0.0483,0.0526,0.0656,0.0726,0.086,0.0954,0.1093,0.1183,0.1271,0.1253,0.1139,0.0744,0.0399,0.0002,-0.0259,-0.0332,-0.0308,-0.0267,-0.0235,-0.0233,-0.0526,-0.0499,0,0,0,0,0]}],[{"header":{"parameterUnit":"m.s-1","parameterCategory":2,"la1":30.2991,"la2":30.254,"lo1":-89.0895,"lo2":-89.0444,"dy":0.0017,"dx":0.0017,"nx":28,"ny":28,"refTime":"2025-08-22T03:00:00:Z","depth":"4","parameterNumber":2,"parameterNumberName":"U-component_of_CURRENTS"},"data":[0,0,0,0,0,0,0,0,0,0,0,0,0,0,0,0,0,0,0,0,0,0,0,0,0,0,0,0,0,0,0,0,0,0,0,0,0,0,0,0,0,0,0,0,0,0,0,0,0,0,0,0,0,0,0,0,0,0,0.1156,0.1157,0,0.1216,0.1217,0.1217,0.1258,0.1258,0.1259,0.1259,0.1305,0.1306,0.1307,0,0,0,0,0,0,0,0,0,0,0,0,0,0.1071,0.1072,0.1156,0.1157,0.1158,0.1216,0.1217,0.1218,0.1258,0.1258,0.1259,0.1259,0.1305,0.1306,0.1307,0,0,0,0,0,0,0,0,0,0,0,0,0,0.1115,0.1073,0.1156,0.1187,0.1191,0.1216,0.1217,0.1218,0.1257,0.1258,0.1259,0.126,0.1305,0.1306,0.1307,0.1298,0,0,0.131,0.1311,0,0,0,0,0,0,0,0,0.1112,0.1118,0.1182,0.1185,0.1189,0.1233,0.1204,0.1245,0.1257,0.1229,0.1259,0.126,0.1281,0.1284,0.129,0.13,0.1302,0.131,0.1311,0.1312,0.1312,0,0,0,0,0,0,0,0.1109,0.1115,0.1177,0.1183,0.1188,0.1197,0.1204,0.1212,0.1247,0.1232,0.1236,0.1246,0.1283,0.1289,0.1291,0.1303,0.131,0.1311,0.1312,0.1313,0.1388,0.1389,0,0,0,0,0,0,0.1107,0.1112,0.1175,0.1179,0.1155,0.1198,0.1205,0.1216,0.1248,0.1254,0.1246,0.1248,0.1287,0.129,0.1293,0.1356,0.1312,0.1313,0.1313,0.1386,0.1388,0.139,0,0,0,0,0,0,0.1105,0.1112,0.1173,0.1149,0.1158,0.1199,0.121,0.1217,0.125,0.1259,0.1265,0.1276,0.1287,0.1292,0.1325,0.1355,0.1313,0.1314,0.1385,0.1387,0.1389,0.1435,0,0,0,0,0,0,0.1102,0.1111,0.113,0.1149,0.116,0.1202,0.121,0.1217,0.1255,0.126,0.1286,0.129,0.1288,0.1324,0.1326,0.1356,0.1315,0.1383,0.1386,0.1388,0.1431,0.1438,0.1444,0,0,0,0,0,0.1099,0.1116,0.1131,0.1139,0.1181,0.1203,0.121,0.1239,0.1256,0.1272,0.1295,0.129,0.1342,0.1325,0.1328,0.1359,0.1382,0.1385,0.1388,0.1429,0.1437,0.1443,0,0,0,0,0,0,0.1089,0.1122,0.1139,0.1166,0.1192,0.1212,0.1234,0.1253,0.1284,0.1298,0.1304,0.1309,0.1352,0.1348,0.133,0.1389,0.1363,0.1366,0.1393,0.14,0.1406,0.1417,0.1316,0,0,0,0,0,0.1095,0.1118,0.1148,0.1171,0.1187,0.1216,0.1236,0.1257,0.1281,0.1297,0.1315,0.1338,0.1361,0.1376,0.1391,0.1419,0.1429,0.1442,0.1448,0.1453,0.1465,0.1498,0.1508,0.1399,0.1399,0.1399,0,0,0.1097,0.112,0.1134,0.1171,0.1195,0.1219,0.123,0.1266,0.1294,0.1295,0.1343,0.1361,0.1374,0.141,0.1429,0.1414,0.1493,0.1457,0.1461,0.1471,0.1502,0.1513,0.1522,0.1401,0.1401,0.1401,0,0,0.1101,0.1135,0.1152,0.1176,0.122,0.1239,0.1256,0.1292,0.1321,0.1363,0.1376,0.1413,0.1444,0.1461,0.1472,0.152,0.1525,0.153,0.1568,0.16,0.161,0.1618,0.1656,0.1668,0.1531,0.1531,0.1531,0,0.1104,0.113,0.1161,0.1184,0.1207,0.1251,0.1273,0.1307,0.1352,0.1378,0.1387,0.1459,0.1468,0.1517,0.1538,0.1535,0.1558,0.1538,0.1608,0.1617,0.1624,0.1662,0.1673,0.1534,0.1533,0.1533,0.1533,0,0.1114,0.1145,0.1158,0.1202,0.1231,0.1259,0.1306,0.1346,0.1389,0.1423,0.1492,0.1516,0.1561,0.1571,0.1572,0.1635,0.1637,0.1613,0.1588,0.1638,0.1674,0.1686,0.1537,0.1536,0.1536,0.1535,0,0,0.1088,0.1152,0.1157,0.1181,0.1244,0.1264,0.1322,0.1378,0.1425,0.1484,0.1542,0.1596,0.1629,0.1645,0.1659,0.1688,0.1762,0.1682,0.1682,0.1719,0.1851,0.174,0.1742,0.1755,0.1757,0.1758,0.1858,0,0.1086,0.1124,0.116,0.1203,0.1227,0.1285,0.1333,0.1396,0.1456,0.1523,0.1581,0.1642,0.1653,0.1687,0.1725,0.1755,0.1794,0.1738,0.1799,0.1801,0.1695,0.1751,0.1765,0.1867,0.1869,0.1871,0.1873,0,0.1076,0.1107,0.1143,0.1209,0.1226,0.1265,0.1349,0.1405,0.1509,0.1555,0.1639,0.1688,0.1773,0.1758,0.1862,0.1831,0.1855,0.1868,0.1872,0.176,0.1711,0.1805,0.1893,0.1892,0.189,0.1889,0.1887,0,0.1027,0.1089,0.1118,0.114,0.1224,0.1261,0.1322,0.142,0.1481,0.1593,0.1646,0.1747,0.1816,0.1867,0.1924,0.1903,0.2017,0.1982,0.1908,0.1901,0.1949,0.1939,0.2045,0.2045,0.2045,0.2044,0.2044,0,0.0995,0.1019,0.1104,0.1118,0.1169,0.1247,0.1322,0.1388,0.1507,0.1578,0.1677,0.1744,0.1849,0.1926,0.1954,0.1978,0.205,0.1932,0.192,0.1968,0.1959,0.1958,0.1947,0.2048,0.2047,0.2047,0.2046,0,0.0927,0.0981,0.102,0.1113,0.1145,0.1189,0.1319,0.1372,0.1495,0.1592,0.1635,0.1777,0.1876,0.1959,0.2044,0.201,0.2034,0.2017,0.2088,0.2076,0.1893,0.1883,0.1949,0.1946,0.1943,0.1941,0.194,0,0.0892,0.0906,0.0999,0.1028,0.1073,0.1158,0.1211,0.1346,0.1406,0.1596,0.1627,0.1777,0.1854,0.1909,0.1989,0.204,0.2012,0.2014,0.1932,0.1902,0.1885,0.1879,0.1872,0.1935,0.1935,0.1934,0.1933,0,0.0826,0.0867,0.0898,0.0962,0.1016,0.1073,0.1168,0.1207,0.1365,0.1485,0.159,0.1666,0.1774,0.185,0.1904,0.1929,0.2004,0.1986,0.1991,0.1914,0.1886,0.187,0.1867,0.1924,0.1926,0.1927,0.1927,0,0.0775,0.0779,0.0831,0.0878,0.0944,0.0979,0.1041,0.1128,0.1212,0.1423,0.1455,0.1619,0.1754,0.1795,0.1843,0.1863,0.1835,0.177,0.1785,0.1796,0.1698,0.1636,0.1603,0,0,0,0,0,0.0722,0.0716,0.075,0.0792,0.0857,0.0898,0.1003,0.1073,0.1226,0.1262,0.1363,0.1457,0.1562,0.165,0.1643,0.1767,0.1828,0.175,0.1756,0.1875,0.1885,0.1782,0,0,0,0,0,0,0.0681,0.0699,0.0712,0.0715,0.0736,0.0792,0.0858,0.0958,0.0996,0.1164,0.1232,0.1363,0.1484,0.155,0.1612,0.1637,0.1611,0.1854,0.185,0.1869,0.1878,0.1887,0.1785,0,0,0,0,0]},{"header":{"parameterUnit":"m.s-1","parameterCategory":2,"la1":30.2991,"la2":30.254,"lo1":-89.0895,"lo2":-89.0444,"dy":0.0017,"dx":0.0017,"nx":28,"ny":28,"refTime":"2025-08-22T03:00:00:Z","depth":"4","parameterNumber":3,"parameterNumberName":"V-component_of_CURRENTS"},"data":[0,0,0,0,0,0,0,0,0,0,0,0,0,0,0,0,0,0,0,0,0,0,0,0,0,0,0,0,0,0,0,0,0,0,0,0,0,0,0,0,0,0,0,0,0,0,0,0,0,0,0,0,0,0,0,0,0,0,0.0022,0.0022,0,-0.0006,-0.0006,-0.0007,-0.0032,-0.0032,-0.0033,-0.0033,-0.0077,-0.0078,-0.0079,0,0,0,0,0,0,0,0,0,0,0,0,0,0.0043,0.0042,0.0023,0.0022,0.0022,-0.0006,-0.0006,-0.0007,-0.0032,-0.0032,-0.0033,-0.0033,-0.0077,-0.0078,-0.0079,0,0,0,0,0,0,0,0,0,0,0,0,0,0.0026,0.0042,0.0023,0.0006,0.0004,-0.0006,-0.0007,-0.0007,-0.0032,-0.0033,-0.0033,-0.0033,-0.0076,-0.0078,-0.0079,-0.0079,0,0,-0.0083,-0.0084,0,0,0,0,0,0,0,0,0.0027,0.0025,0.0009,0.0007,0.0005,-0.0016,-0.0016,-0.0032,-0.0032,-0.0018,-0.0033,-0.0034,-0.0057,-0.006,-0.0065,-0.0081,-0.0083,-0.0083,-0.0084,-0.0085,-0.0085,0,0,0,0,0,0,0,0.0028,0.0026,0.0011,0.0008,0.0006,-0.0004,-0.0007,-0.0019,-0.0036,-0.002,-0.0022,-0.0024,-0.0059,-0.0063,-0.0066,-0.0083,-0.0083,-0.0084,-0.0085,-0.0086,-0.0114,-0.0114,0,0,0,0,0,0,0.0033,0.0027,0.0012,0.001,0.0015,-0.0004,-0.0007,-0.0009,-0.0035,-0.004,-0.0024,-0.0025,-0.0061,-0.0064,-0.0068,-0.0056,-0.0085,-0.0086,-0.0087,-0.0114,-0.0114,-0.0114,0,0,0,0,0,0,0.0034,0.0032,0.0013,0.0018,0.0015,-0.0004,-0.0006,-0.0009,-0.0015,-0.0038,-0.0043,-0.0027,-0.0061,-0.0066,-0.0074,-0.0058,-0.0086,-0.0088,-0.0114,-0.0114,-0.0114,-0.0041,0,0,0,0,0,0,0.0034,0.0032,0.0034,0.0019,0.0015,0.0015,-0.0005,-0.0009,-0.0016,-0.0019,-0.0042,-0.0047,-0.0062,-0.0071,-0.0075,-0.0061,-0.0089,-0.0114,-0.0114,-0.0114,-0.0043,-0.0038,-0.0034,0,0,0,0,0,0.0035,0.0044,0.0034,0.0032,0.0017,0.0016,0.0013,-0.0002,-0.0016,-0.0011,-0.0029,-0.0046,-0.0074,-0.0072,-0.0076,-0.0062,-0.0114,-0.0114,-0.0114,-0.0045,-0.0039,-0.0034,0,0,0,0,0,0,0.0053,0.0041,0.003,0.0034,0.0028,0.0012,0.0014,0.0,-0.0011,-0.0016,-0.004,-0.0045,-0.005,-0.0069,-0.0067,-0.0073,-0.0099,-0.0099,-0.0045,-0.004,-0.0035,-0.0009,-0.009,0,0,0,0,0,0.0057,0.006,0.0047,0.0049,0.0048,0.0029,0.0026,0.0015,0.0003,-0.0003,-0.0019,-0.004,-0.0053,-0.0056,-0.0074,-0.007,-0.0097,-0.0068,-0.0063,-0.0059,-0.0043,-0.0071,-0.0066,-0.0113,-0.0113,-0.0113,0,0,0.0064,0.0058,0.0059,0.0053,0.0045,0.0059,0.0027,0.0025,0.004,-0.0005,0.0006,-0.0025,-0.0051,-0.0049,-0.0053,-0.0061,-0.0063,-0.0059,-0.0055,-0.0041,-0.007,-0.0065,-0.0061,-0.0113,-0.0113,-0.0113,0,0,0.0092,0.0075,0.0092,0.0092,0.0085,0.0077,0.0078,0.0065,0.0061,0.0062,0.0032,0.0014,-0.0005,-0.0015,-0.0024,-0.0005,-0.0042,-0.0018,0.0037,0.001,0.0014,0.0018,-0.002,-0.002,-0.0009,-0.0009,-0.0008,0,0.0101,0.0122,0.0097,0.0118,0.0129,0.009,0.0121,0.0111,0.0097,0.0102,0.0074,0.0044,0.0016,0.0028,0.0032,0.0009,-0.0018,0.0022,0.0019,0.0021,0.0024,-0.0016,-0.0017,-0.0005,-0.0005,-0.0006,-0.0006,0,0.0147,0.0165,0.0176,0.0192,0.0198,0.0214,0.0203,0.0205,0.0186,0.0173,0.0168,0.0125,0.0111,0.0093,0.007,0.0077,0.0047,0.0024,0.0011,0.0033,-0.0011,-0.0013,0.0,-0.0001,-0.0002,-0.0003,0,0,0.0169,0.0204,0.0208,0.0237,0.0241,0.0254,0.0277,0.0291,0.0308,0.0274,0.0295,0.0256,0.0219,0.0206,0.0167,0.0145,0.0126,0.01,0.0097,0.0074,0.0059,0.0007,-0.0002,0.0103,0.0103,0.0103,0.0019,0,0.0217,0.028,0.0283,0.0344,0.0378,0.0363,0.0392,0.0394,0.0377,0.0381,0.0331,0.0323,0.0267,0.0256,0.0227,0.0146,0.0124,0.0151,0.003,0.0027,-0.0012,-0.0005,0.0104,0.0016,0.0016,0.0015,0.0015,0,0.0266,0.0304,0.0377,0.0434,0.0447,0.0476,0.0513,0.0533,0.0522,0.0502,0.0479,0.0431,0.0394,0.0338,0.0231,0.0249,0.017,0.0104,0.0099,0.0028,-0.003,-0.0011,0.0009,0.001,0.001,0.001,0.0011,0,0.0303,0.0371,0.0435,0.0454,0.0506,0.0541,0.0566,0.0573,0.059,0.0579,0.0569,0.0518,0.0474,0.0384,0.0233,0.0237,0.0099,0.0084,-0.0033,-0.0039,0.0003,-0.0,0.0024,0.0024,0.0024,0.0024,0.0025,0,0.0355,0.0404,0.046,0.0496,0.0572,0.0593,0.0659,0.0664,0.0674,0.0683,0.0634,0.0608,0.0482,0.038,0.0261,0.0091,0.0115,-0.0019,-0.0059,0.0032,0.0033,-0.0001,-0.0002,0.0021,0.0022,0.0023,0.0023,0,0.0381,0.0418,0.0494,0.0566,0.0593,0.0645,0.0713,0.0746,0.0747,0.0755,0.0751,0.0667,0.0526,0.0383,0.0212,0.0111,-0.0033,-0.0097,0.0002,-0.0033,-0.0155,-0.0152,-0.0214,-0.0217,-0.0219,-0.022,-0.0222,0,0.04,0.0441,0.0535,0.0577,0.0613,0.0692,0.0739,0.0775,0.0795,0.0774,0.0764,0.0654,0.0573,0.03,0.0149,-0.0075,-0.011,-0.0176,-0.0145,-0.0143,-0.0177,-0.017,-0.0165,-0.0225,-0.0226,-0.0226,-0.0227,0,0.0425,0.0455,0.051,0.0595,0.0658,0.0733,0.0796,0.0817,0.0837,0.0844,0.0762,0.0635,0.0469,0.0277,0.0093,-0.0066,-0.0123,-0.0197,-0.0193,-0.0166,-0.0158,-0.0187,-0.0179,-0.0234,-0.0233,-0.0232,-0.0232,0,0.0424,0.046,0.0522,0.0594,0.0673,0.0732,0.0785,0.0801,0.0824,0.08,0.0766,0.0608,0.0526,0.0278,0.0107,-0.0056,-0.0085,-0.0119,-0.0119,-0.0113,-0.0064,-0.0038,-0.0106,0,0,0,0,0,0.0415,0.0445,0.0513,0.0587,0.0664,0.0708,0.079,0.0831,0.0858,0.0801,0.0785,0.063,0.0379,0.0278,0.0105,0.0063,-0.0119,-0.0145,-0.0159,-0.0274,-0.0265,-0.023,0,0,0,0,0,0,0.0401,0.0456,0.0496,0.0557,0.0604,0.0683,0.074,0.077,0.0743,0.075,0.0621,0.0575,0.0334,0.0463,0.0092,0.0045,0.0012,-0.0253,-0.0257,-0.0278,-0.0271,-0.0264,-0.0225,0,0,0,0,0]}]]